Back to catalog

CZ-6A DEB

AlivePO
NORAD 54997·DEBRIS·🇨🇳 China

Launched Nov 11, 2022 from Taiyuan Satellite Launch Center

Loading…

Next Passes (next 24 hours)

TLE

FreshSource: Space-Track

Epoch: Sep 14, 2026, 05:39 UTC

1 54997U 22151UN  26257.23601356  .00007494  00000-0  95183-3 0  9996
2 54997  98.6217 344.8237 0069952 306.2710  53.2051 14.80260810203135

Track CZ-6A DEB in real time with AllMySat

Download on the App Store